DW9029 Weather Reports


Display with metric or nautical units.
time (UTC)temp
F
wind
direction
speed
MPH
gust
MPH
rain 1hr
in
rain 24hr
in
rain mn
in
humidity
%
barometer
mb
20180422121404 71 291 0.0 3.0 0.00 0.07 0.02 66 1011.7
20180422120904 71 295 1.0 5.0 0.00 0.07 0.02 66 1011.7
20180422120404 71 267 1.0 7.0 0.00 0.07 0.02 67 1011.7
20180422114904 70 267 5.0 9.0 0.00 0.07 0.02 69 1011.8
20180422114404 70 277 5.0 9.0 0.00 0.07 0.02 69 1011.9
20180422113904 70 341 0.0 5.0 0.00 0.07 0.02 69 1011.9
20180422113404 70 276 5.0 8.0 0.00 0.07 0.02 69 1011.9
20180422111904 69 259 2.0 6.0 0.00 0.07 0.02 69 1012.0
20180422111404 69 208 4.0 8.0 0.00 0.07 0.02 69 1012.1
20180422110903 70 238 3.0 7.0 0.00 0.07 0.02 68 1012.1
20180422110403 70 236 1.0 3.0 0.00 0.07 0.02 67 1012.1
20180422104903 70 333 0.0 0.0 0.00 0.07 0.02 68 1012.2
20180422104404 70 332 0.0 2.0 0.00 0.07 0.02 69 1012.2
20180422103904 69 259 1.0 3.0 0.00 0.07 0.02 68 1012.2
20180422103403 69 249 1.0 5.0 0.00 0.07 0.02 69 1012.3
20180422101904 69 286 0.0 0.0 0.00 0.07 0.02 69 1012.3
20180422101404 69 286 0.0 3.0 0.00 0.07 0.02 70 1012.2
20180422100903 69 252 0.0 3.0 0.00 0.07 0.02 71 1012.2
20180422100403 69 327 0.0 2.0 0.00 0.07 0.02 72 1012.2
20180422094904 68 322 1.0 5.0 0.00 0.07 0.02 73 1012.3
20180422094403 68 263 2.0 3.0 0.00 0.07 0.02 73 1012.4
20180422093904 68 278 0.0 0.0 0.00 0.07 0.02 74 1012.3
20180422093404 68 259 0.0 5.0 0.00 0.07 0.02 75 1012.3
20180422091904 67 240 0.0 0.0 0.00 0.07 0.02 76 1012.2
20180422091403 67 233 0.0 0.0 0.00 0.07 0.02 78 1012.3
20180422090904 66 240 0.0 0.0 0.00 0.07 0.02 80 1012.4
20180422090404 66 236 0.0 0.0 0.00 0.07 0.02 80 1012.4
20180422084903 65 236 0.0 1.0 0.00 0.07 0.02 84 1012.3
20180422084404 64 269 0.0 0.0 0.00 0.07 0.02 86 1012.2
20180422083904 64 269 0.0 0.0 0.00 0.07 0.02 87 1012.0
20180422083404 63 269 0.0 0.0 0.00 0.07 0.02 88 1012.0
20180422081904 62 271 0.0 0.0 0.00 0.07 0.02 92 1012.2
20180422081403 61 253 0.0 0.0 0.00 0.07 0.02 93 1012.3
20180422080904 61 253 2.0 3.0 0.00 0.07 0.02 94 1012.2
20180422080404 61 273 0.0 0.0 0.00 0.07 0.02 94 1012.2
20180422074904 60 269 0.0 0.0 0.00 0.07 0.02 95 1012.0
20180422074404 60 264 0.0 0.0 0.00 0.07 0.02 95 1012.1
20180422073904 60 264 0.0 0.0 0.00 0.07 0.02 95 1012.3
20180422073404 60 268 0.0 0.0 0.00 0.07 0.02 95 1012.4
20180422071904 60 269 0.0 0.0 0.00 0.07 0.02 95 1012.0
20180422071404 59 231 0.0 5.0 0.00 0.07 0.02 95 1012.4
20180422070904 59 219 2.0 3.0 0.00 0.07 0.02 95 1012.6
20180422070403 59 219 2.0 5.0 0.00 0.07 0.02 95 1012.6
20180422064903 59 190 0.0 0.0 0.00 0.07 0.02 94 1012.0
20180422064404 59 190 0.0 0.0 0.00 0.07 0.02 94 1011.8
20180422063904 59 191 0.0 0.0 0.00 0.07 0.02 94 1012.0
20180422063404 59 190 0.0 2.0 0.00 0.07 0.02 94 1012.1
20180422061903 59 221 0.0 0.0 0.00 0.07 0.02 94 1012.2
20180422061404 60 221 0.0 0.0 0.00 0.07 0.02 94 1012.2
20180422060904 60 181 0.0 0.0 0.00 0.07 0.02 94 1012.1
20180422060404 60 171 0.0 3.0 0.00 0.07 0.02 94 1011.9
20180422054904 60 151 0.0 0.0 0.00 0.07 0.02 93 1011.6
20180422054404 60 76 0.0 0.0 0.00 0.07 0.02 93 1011.3
20180422053903 60 76 0.0 0.0 0.00 0.07 0.02 93 1011.4
20180422053404 60 76 0.0 0.0 0.00 0.07 0.02 93 1011.3
20180422051904 60 76 0.0 0.0 0.00 0.07 0.02 93 1011.3
20180422051403 60 76 0.0 0.0 0.00 0.07 0.02 93 1011.3
20180422050904 60 76 0.0 0.0 0.00 0.07 0.02 93 1011.3
20180422050404 61 76 0.0 0.0 0.00 0.07 0.02 93 1011.4
20180422044904 60 76 0.0 0.0 0.00 0.07 0.02 92 1011.5
20180422044404 61 76 0.0 0.0 0.00 0.07 0.02 92 1011.6
20180422043904 61 76 0.0 0.0 0.00 0.07 0.02 92 1011.6
20180422043404 61 76 0.0 0.0 0.00 0.07 0.02 92 1011.7
20180422041904 61 76 0.0 0.0 0.00 0.07 0.02 91 1011.7
20180422041404 61 76 0.0 0.0 0.00 0.07 0.02 91 1011.6
20180422040904 61 76 0.0 0.0 0.00 0.07 0.02 90 1011.8
20180422040404 61 76 0.0 0.0 0.00 0.07 0.02 90 1012.1
20180422034904 62 76 0.0 0.0 0.00 0.07 0.02 88 1012.0
20180422034404 62 76 0.0 0.0 0.00 0.07 0.02 87 1012.0
20180422033903 62 42 0.0 0.0 0.00 0.07 0.02 86 1011.9
20180422033404 62 40 0.0 6.0 0.00 0.07 0.02 86 1012.2
20180422031904 62 155 0.0 0.0 0.00 0.07 0.02 84 1012.3
20180422031404 63 154 0.0 0.0 0.00 0.07 0.02 83 1012.5
20180422030904 63 153 0.0 0.0 0.00 0.07 0.02 83 1012.5
20180422030404 63 153 0.0 0.0 0.00 0.07 0.02 82 1012.2
20180422024904 63 19 0.0 0.0 0.00 0.07 0.02 81 1011.9
20180422024404 63 22 0.0 0.0 0.00 0.07 0.02 81 1011.8
20180422023904 63 24 1.0 3.0 0.00 0.07 0.02 81 1011.7
20180422023404 63 324 0.0 0.0 0.00 0.07 0.02 80 1011.9
20180422021904 63 311 0.0 3.0 0.00 0.07 0.02 81 1012.3
20180422021404 63 341 0.0 0.0 0.00 0.07 0.02 81 1012.1
20180422020904 63 342 0.0 0.0 0.00 0.07 0.02 82 1012.1
20180422020404 63 344 1.0 6.0 0.00 0.07 0.02 82 1012.1
20180422014903 63 309 0.0 3.0 0.00 0.07 0.02 82 1012.4
20180422014404 63 326 0.0 3.0 0.01 0.07 0.02 82 1012.4
20180422013903 63 353 4.0 6.0 0.01 0.07 0.02 83 1012.2
20180422013404 63 21 1.0 3.0 0.01 0.07 0.02 82 1012.4
20180422011903 63 271 0.0 0.0 0.01 0.07 0.02 81 1013.1
20180422011404 63 290 0.0 5.0 0.01 0.07 0.02 81 1013.2
20180422010903 63 8 2.0 8.0 0.01 0.07 0.02 81 1012.6
20180422010404 64 19 4.0 9.0 0.01 0.07 0.02 81 1012.5
20180422004904 64 16 0.0 0.0 0.02 0.07 0.02 82 1013.4
20180422004404 64 322 0.0 0.0 0.01 0.06 0.02 81 1013.8
20180422003903 64 263 0.0 0.0 0.01 0.06 0.02 82 1014.0
20180422003403 64 321 0.0 10.0 0.01 0.06 0.02 82 1013.6
20180422001903 64 21 3.0 7.0 0.01 0.06 0.02 82 1013.1
20180422001404 64 2 0.0 3.0 0.01 0.06 0.02 81 1013.6
20180422000904 65 26 0.0 0.0 0.01 0.06 0.02 81 1013.7
20180422000403 65 343 0.0 12.0 0.01 0.06 0.02 80 1013.8
20180421234904 65 37 6.0 10.0 0.00 0.06 0.01 81 1013.6
20180421234404 64 57 0.0 0.0 0.00 0.06 0.01 83 1014.0
20180421233903 64 49 0.0 0.0 0.00 0.06 0.01 83 1014.0
20180421233404 64 30 0.0 0.0 0.00 0.06 0.01 83 1013.5
20180421231904 65 294 0.0 0.0 0.00 0.06 0.01 82 1013.8
20180421231404 65 294 0.0 0.0 0.01 0.06 0.01 83 1014.0
20180421230904 65 294 0.0 0.0 0.01 0.06 0.01 83 1014.1
20180421230404 65 58 0.0 6.0 0.01 0.06 0.01 82 1013.6
20180421224900 65 25 2.0 8.0 0.01 0.06 0.01 82 1013.2
20180421224400 65 356 2.0 10.0 0.01 0.06 0.01 82 1013.1
20180421223901 65 8 4.0 12.0 0.01 0.06 0.01 82 1013.1
20180421223401 65 1 2.0 12.0 0.01 0.06 0.01 81 1013.2
20180421221900 66 357 5.0 9.0 0.01 0.06 0.01 80 1013.3
20180421221401 66 359 3.0 8.0 0.00 0.05 0.00 81 1013.4
20180421220901 66 349 4.0 9.0 0.00 0.05 0.00 81 1013.4
20180421220401 65 345 3.0 8.0 0.00 0.05 0.00 82 1013.3
20180421214901 65 357 2.0 8.0 0.00 0.05 0.05 82 1013.3
20180421214401 66 342 3.0 7.0 0.00 0.05 0.05 82 1013.2
20180421213901 66 36 1.0 8.0 0.00 0.05 0.05 82 1013.3
20180421213401 66 348 1.0 3.0 0.00 0.05 0.05 82 1013.2
20180421211901 65 37 1.0 6.0 0.00 0.05 0.05 83 1013.5
20180421211400 65 329 1.0 6.0 0.00 0.05 0.05 84 1013.4
20180421210901 65 4 0.0 0.0 0.00 0.05 0.05 84 1013.3
20180421210400 66 15 0.0 2.0 0.00 0.05 0.05 84 1013.5
20180421204901 66 300 1.0 7.0 0.01 0.05 0.05 85 1013.6
20180421204401 66 264 5.0 9.0 0.01 0.05 0.05 86 1013.5
20180421203901 66 272 2.0 7.0 0.01 0.05 0.05 86 1013.2
20180421203400 66 278 1.0 7.0 0.01 0.05 0.05 86 1013.0
20180421201901 66 282 0.0 0.0 0.01 0.05 0.05 85 1013.1
20180421201401 66 283 0.0 5.0 0.01 0.05 0.05 83 1013.0
20180421200900 67 288 2.0 6.0 0.01 0.05 0.05 82 1013.0
20180421200401 67 260 3.0 7.0 0.01 0.05 0.05 81 1013.1
20180421194901 69 284 0.0 5.0 0.00 0.04 0.04 72 1013.0
20180421194400 69 272 2.0 5.0 0.00 0.04 0.04 72 1013.3
20180421193901 69 246 1.0 3.0 0.01 0.04 0.04 72 1013.0
20180421193401 69 337 1.0 7.0 0.01 0.04 0.04 72 1011.9
20180421191901 69 16 1.0 3.0 0.01 0.04 0.04 70 1011.7
20180421191403 69 24 0.0 0.0 0.01 0.04 0.04 70 1011.4
20180421190901 70 355 0.0 0.0 0.01 0.04 0.04 70 1011.4
20180421190400 70 355 0.0 3.0 0.01 0.04 0.04 69 1011.5
20180421184901 71 26 0.0 0.0 0.01 0.04 0.04 65 1011.7
20180421184401 71 34 0.0 3.0 0.01 0.04 0.04 63 1011.9
20180421183901 72 48 0.0 3.0 0.00 0.03 0.03 62 1012.2
20180421183401 72 64 2.0 7.0 0.00 0.03 0.03 60 1012.0
20180421181900 72 34 2.0 7.0 0.00 0.03 0.03 58 1011.1
20180421181401 72 37 3.0 7.0 0.00 0.03 0.03 59 1011.3
20180421180900 72 57 2.0 8.0 0.00 0.03 0.03 58 1011.4
20180421180401 73 27 3.0 7.0 0.00 0.03 0.03 58 1011.3
20180421174900 73 0 1.0 5.0 0.00 0.03 0.03 56 1011.3
20180421174401 73 55 2.0 6.0 0.00 0.03 0.03 56 1011.0
20180421173901 73 51 2.0 8.0 0.00 0.03 0.03 56 1011.1
20180421173401 73 32 4.0 10.0 0.00 0.03 0.03 55 1011.0
20180421171901 73 125 1.0 5.0 0.00 0.03 0.03 54 1012.2
20180421171401 73 82 0.0 0.0 0.00 0.03 0.03 54 1011.8
20180421170901 73 82 0.0 3.0 0.00 0.03 0.03 54 1011.5
20180421170401 73 40 0.0 9.0 0.00 0.03 0.03 54 1011.3
20180421164901 73 63 2.0 3.0 0.00 0.03 0.03 54 1011.4
20180421164401 73 87 1.0 6.0 0.00 0.03 0.03 54 1011.2
20180421163901 73 62 4.0 9.0 0.00 0.03 0.03 54 1010.9
20180421163401 73 61 0.0 0.0 0.00 0.03 0.03 54 1011.5
20180421161900 73 81 0.0 0.0 0.00 0.03 0.03 54 1011.1
20180421161401 73 87 1.0 5.0 0.00 0.03 0.03 54 1011.1
20180421160901 73 117 0.0 3.0 0.00 0.03 0.03 54 1011.3
20180421160401 73 120 0.0 7.0 0.00 0.03 0.03 53 1011.3
20180421154901 73 155 0.0 0.0 0.00 0.03 0.03 55 1011.8
20180421154400 73 112 0.0 2.0 0.00 0.03 0.03 55 1011.9
20180421153901 73 75 0.0 5.0 0.00 0.03 0.03 58 1011.3
20180421153401 72 30 0.0 6.0 0.00 0.03 0.03 59 1011.3
20180421151901 72 6 0.0 0.0 0.00 0.03 0.03 60 1011.6
20180421151401 72 0 0.0 0.0 0.00 0.03 0.03 61 1011.6
20180421150901 72 353 0.0 0.0 0.00 0.03 0.03 62 1011.6
20180421150400 71 0 2.0 10.0 0.00 0.03 0.03 62 1011.5
20180421144901 70 336 2.0 12.0 0.00 0.03 0.03 63 1011.7
20180421144401 71 42 4.0 9.0 0.01 0.03 0.03 62 1012.0
20180421143900 71 7 2.0 7.0 0.02 0.03 0.03 64 1012.2
20180421143401 70 61 3.0 9.0 0.02 0.03 0.03 65 1012.3
20180421141901 69 37 1.0 7.0 0.02 0.03 0.03 68 1012.7
20180421141401 69 13 2.0 8.0 0.02 0.03 0.03 69 1012.9
20180421140900 69 22 0.0 9.0 0.02 0.03 0.03 71 1012.9
20180421140401 68 0 3.0 10.0 0.02 0.03 0.03 72 1012.7
20180421134901 68 336 6.0 10.0 0.03 0.03 0.03 74 1012.9
20180421134401 68 359 3.0 8.0 0.02 0.02 0.02 70 1013.5
20180421133900 68 355 0.0 0.0 0.02 0.02 0.02 70 1014.2
20180421133401 67 311 0.0 9.0 0.02 0.02 0.02 73 1013.9
20180421131901 67 315 1.0 9.0 0.02 0.02 0.02 76 1013.7
20180421131401 67 320 4.0 10.0 0.02 0.02 0.02 77 1013.3
20180421130901 67 20 4.0 10.0 0.02 0.02 0.02 77 1013.1
20180421130401 66 3 5.0 12.0 0.02 0.02 0.02 76 1012.8
20180421124901 67 273 0.0 0.0 0.00 0.00 0.00 71 1014.3
20180421124401 67 245 2.0 5.0 0.00 0.00 0.00 69 1014.8
20180421123900 67 228 3.0 10.0 0.00 0.00 0.00 68 1015.0
20180421123401 67 221 3.0 9.0 0.00 0.00 0.00 68 1015.1
20180421121901 67 286 5.0 9.0 0.00 0.00 0.00 68 1014.0